Change the Weather History Date:

Thursday, October 20, 2011

  Actual Average Record
Temperature  
Mean Temperature 65 °F 61 °F  
Max Temperature 86 °F 78 °F 95 °F (2003)
Min Temperature 44 °F 45 °F 31 °F (1949)
Degree Days  
Heating Degree Days 0    
Month to date heating degree days 51  
Since 1 July heating degree days 51  
Cooling Degree Days 0    
Month to date cooling degree days 65  
Year to date cooling degree days 1747  
Growing Degree Days 14 (Base 50)    
Moisture  
Dew Point 41 °F    
Average Humidity 50    
Maximum Humidity 86    
Minimum Humidity 14    
Precipitation  
Precipitation 0.00 in 0.02 in 0.23 in (2004)
Month to date precipitation 0.19 0.23  
Year to date precipitation 4.07 5.48  
Since 1 July precipitation 0.42 0.57  
Snow  
Snow 0.00 in - 0.00 in ()
Month to date snowfall 0.0  
Since 1 July snowfall 0.0  
Since 1 September snowfall 0.0  
Snow Depth 0.00 in    
Sea Level Pressure  
Sea Level Pressure 29.98 in    
Wind  
Wind Speed 4 mph (West)    
Max Wind Speed 14 mph    
Max Gust Speed 17 mph    
Visibility 10 miles    
Events      
T = Trace of Precipitation, MM = Missing Value Source: NWS Daily Summary

Daily Weather History Graph

Daily Weather History Graph

Search for Another Location

Airport or City:

Trip Planner

Search our weather history database for the weather conditions in past years. The results will help you decide how hot, cold, wet, or windy it might be!

Date:

Astronomy

Oct. 20, 2011 Rise Set
Actual Time 7:02 AM PDT 6:12 PM PDT
Civil Twilight 6:37 AM PDT 6:37 PM PDT
Nautical Twilight 6:07 AM PDT 7:07 PM PDT
Astronomical Twilight 5:38 AM PDT 7:36 PM PDT
Moon 12:09 AM PDT (10/20) 2:08 PM PDT (10/20)
Length of Visible Light 12h 00m
Length of Day
11h 09m
Last Quarter, 43% of the Moon is Illuminated
Oct 20
Last Quarter
Oct 26
New
Nov 2
First Quarter
Nov 10
Full
Nov 18
Last Quarter

Hourly Weather History & Observations

Time (PDT) Temp. Windchill Dew Point Humidity Pressure Visibility Wind Dir Wind Speed Gust Speed Precip Events Conditions
12:56 AM 55.0 °F - 46.9 °F 74% 29.95 in 9.0 mi Calm Calm - N/A   Clear
1:56 AM 52.0 °F - 46.0 °F 80% 29.95 in 8.0 mi Calm Calm - N/A   Clear
2:56 AM 46.9 °F - 42.1 °F 83% 29.95 in 7.0 mi Calm Calm - N/A   Clear
3:56 AM 50.0 °F - 42.1 °F 74% 29.94 in 10.0 mi SW 3.5 mph - N/A   Clear
4:56 AM 45.0 °F 42.6 °F 39.0 °F 80% 29.97 in 10.0 mi West 4.6 mph - N/A   Clear
5:56 AM 46.0 °F 43.9 °F 39.0 °F 76% 29.98 in 10.0 mi WNW 4.6 mph - N/A   Clear
6:56 AM 44.1 °F - 39.0 °F 82% 30.00 in 8.0 mi Calm Calm - N/A   Clear
7:56 AM 48.0 °F - 41.0 °F 77% 30.01 in 9.0 mi Calm Calm - N/A   Clear
8:56 AM 57.0 °F - 44.1 °F 62% 30.02 in 10.0 mi Calm Calm - N/A   Clear
9:56 AM 64.0 °F - 43.0 °F 46% 30.02 in 10.0 mi Calm Calm - N/A   Clear
10:56 AM 71.1 °F - 42.1 °F 35% 30.01 in 10.0 mi Calm Calm - N/A   Clear
11:56 AM 75.9 °F - 41.0 °F 29% 30.00 in 10.0 mi Variable 3.5 mph - N/A   Clear
12:56 PM 80.1 °F - 39.0 °F 23% 29.97 in 10.0 mi North 5.8 mph - N/A   Clear
1:56 PM 81.0 °F - 34.0 °F 18% 29.94 in 10.0 mi South 3.5 mph - N/A   Clear
2:56 PM 84.0 °F - 30.9 °F 15% 29.93 in 10.0 mi Calm Calm - N/A   Clear
3:56 PM 84.0 °F - 30.9 °F 15% 29.93 in 10.0 mi Calm Calm - N/A   Clear
4:56 PM 84.0 °F - 30.0 °F 14% 29.93 in 10.0 mi Calm Calm - N/A   Clear
5:56 PM 78.1 °F - 41.0 °F 27% 29.94 in 10.0 mi WSW 9.2 mph - N/A   Clear
6:56 PM 71.1 °F - 44.1 °F 38% 29.97 in 10.0 mi WSW 9.2 mph - N/A   Clear
7:56 PM 69.1 °F - 46.0 °F 44% 29.99 in 10.0 mi WNW 11.5 mph - N/A   Clear
8:56 PM 66.9 °F - 46.0 °F 47% 29.99 in 10.0 mi WNW 12.7 mph - N/A   Clear
9:56 PM 66.0 °F - 48.0 °F 52% 30.01 in 10.0 mi West 10.4 mph - N/A   Clear
10:56 PM 60.1 °F - 41.0 °F 49% 30.01 in 10.0 mi West 6.9 mph - N/A   Clear
11:56 PM 59.0 °F - 37.9 °F 46% 30.01 in 10.0 mi Calm Calm - N/A   Clear